EW1970 Weather Reports


Display with metric or nautical units.
time (UTC)temp
F
wind
direction
speed
MPH
gust
MPH
rain 1hr
in
rain 24hr
in
rain mn
in
humidity
%
barometer
mb
20260509114512 71 352 0.0 1.0 0.00 0.00 0.00 93 1011.0
20260509113017 71 352 0.0 2.0 0.00 0.00 0.00 93 1012.0
20260509111505 71 49 0.0 2.0 0.00 0.00 0.00 93 1012.2
20260509110007 71 288 0.0 2.0 0.00 0.00 0.00 93 1012.4
20260509104510 71 340 0.0 2.0 0.00 0.00 0.00 93 1012.3
20260509103017 71 360 0.0 2.0 0.00 0.00 0.00 93 1012.4
20260509101520 71 298 0.0 1.0 0.00 0.00 0.00 93 1012.3
20260509100005 71 102 0.0 0.0 0.00 0.00 0.00 93 1011.8
20260509094508 71 102 0.0 0.0 0.00 0.00 0.00 93 1011.3
20260509093012 71 102 0.0 0.0 0.00 0.00 0.00 93 1010.9
20260509091519 71 102 0.0 0.0 0.00 0.00 0.00 93 1010.9
20260509090022 71 102 0.0 0.0 0.00 0.00 0.00 92 1010.8
20260509084507 71 102 0.0 1.0 0.00 0.00 0.00 92 1011.0
20260509083020 72 102 0.0 0.0 0.00 0.00 0.00 92 1011.3
20260509081518 71 102 0.0 0.0 0.00 0.00 0.00 92 1011.2
20260509080033 72 102 0.0 0.0 0.00 0.00 0.00 92 1011.3
20260509074526 72 102 0.0 1.0 0.00 0.00 0.00 91 1011.5
20260509073010 72 146 0.0 0.0 0.00 0.00 0.00 91 1011.6
20260509071513 72 146 0.0 2.0 0.00 0.00 0.00 91 1011.8
20260509070019 72 275 0.0 2.0 0.00 0.00 0.00 91 1011.8
20260509064526 72 197 0.0 3.0 0.00 0.00 0.00 90 1011.4
20260509063027 73 122 0.0 6.0 0.00 0.00 0.00 90 1011.6
20260509061530 73 132 0.0 2.0 0.00 0.00 0.00 90 1011.2
20260509060017 73 108 0.0 4.0 0.00 0.00 0.00 90 1011.0
20260509054523 73 118 1.0 6.0 0.00 0.00 0.00 90 1011.2
20260509053030 72 126 0.0 3.0 0.00 0.00 0.00 90 1010.4
20260509051527 72 263 1.0 4.0 0.00 0.00 0.00 89 1010.2
20260509050016 73 127 1.0 3.0 0.00 0.00 0.00 89 1010.1
20260509044519 73 103 0.0 4.0 0.00 0.00 0.00 88 1010.3
20260509043022 73 140 0.0 2.0 0.00 0.00 0.00 88 1010.5
20260509041529 73 133 0.0 2.0 0.00 0.00 0.00 88 1010.7
20260509040028 73 145 0.0 2.0 0.00 0.00 0.00 88 1010.8
20260509034518 73 145 0.0 2.0 0.00 0.00 0.00 89 1010.7
20260509033003 72 121 0.0 1.0 0.00 0.00 0.00 89 1010.4
20260509031504 72 134 0.0 2.0 0.00 0.00 0.00 88 1010.3
20260509030014 73 150 0.0 2.0 0.00 0.00 0.00 88 1010.1
20260509024514 73 83 0.0 0.0 0.00 0.00 0.00 88 1010.1
20260509023007 73 28 0.0 2.0 0.00 0.00 0.00 87 1010.0
20260509021506 73 126 0.0 6.0 0.00 0.00 0.00 86 1009.9
20260509020011 74 147 1.0 6.0 0.00 0.00 0.00 86 1009.5
20260509014513 74 107 0.0 7.0 0.00 0.00 0.00 85 1009.5
20260509013019 74 149 0.0 3.0 0.00 0.00 0.00 84 1009.4
20260509011504 75 64 0.0 3.0 0.00 0.00 0.00 83 1009.5
20260509010005 75 131 1.0 5.0 0.00 0.00 0.00 83 1009.5
20260509004521 75 238 0.0 2.0 0.00 0.00 0.00 83 1009.4
20260509003028 75 134 0.0 3.0 0.00 0.00 0.00 83 1009.4
20260509001521 75 154 0.0 3.0 0.00 0.00 0.00 83 1009.5
20260509000005 76 59 0.0 2.0 0.00 0.00 0.00 82 1009.5
20260508234510 76 84 0.0 5.0 0.00 0.00 0.00 82 1009.6
20260508233015 76 78 0.0 3.0 0.00 0.00 0.00 82 1009.4
20260508231520 76 46 0.0 2.0 0.00 0.00 0.00 82 1009.4
20260508230023 76 55 0.0 3.0 0.00 0.00 0.00 82 1009.4
20260508224508 76 303 0.0 2.0 0.00 0.00 0.00 82 1009.6
20260508223012 77 36 0.0 2.0 0.00 0.00 0.00 80 1009.5
20260508221517 78 322 1.0 7.0 0.00 0.00 0.00 79 1009.6
20260508220026 78 191 1.0 3.0 0.00 0.00 0.00 79 1009.6
20260508214526 77 5 0.0 2.0 0.00 0.00 0.00 79 1009.8
20260508213020 78 44 0.0 4.0 0.00 0.00 0.00 77 1009.9
20260508211518 79 232 0.0 4.0 0.00 0.00 0.00 76 1010.1
20260508210020 77 13 0.0 2.0 0.00 0.00 0.00 77 1010.4
20260508204531 78 93 1.0 4.0 0.00 0.00 0.00 74 1010.7
20260508203026 79 320 0.0 2.0 0.00 0.00 0.00 73 1010.8
20260508201518 79 113 1.0 5.0 0.00 0.00 0.00 76 1010.8
20260508200022 75 188 0.0 2.0 0.00 0.00 0.00 78 1011.3
20260508194533 74 159 0.0 4.0 0.00 0.00 0.00 80 1011.4
20260508193028 75 95 0.0 2.0 0.00 0.00 0.00 77 1011.5
20260508191528 77 360 0.0 3.0 0.00 0.00 0.00 72 1011.5
20260508190014 76 109 1.0 3.0 0.00 0.00 0.00 77 1011.6
20260508184524 76 340 1.0 2.0 0.00 0.00 0.00 75 1011.7
20260508183004 77 165 0.0 3.0 0.00 0.00 0.00 71 1012.1
20260508181504 75 78 0.0 3.0 0.00 0.00 0.00 74 1012.4
20260508180006 74 32 0.0 2.0 0.00 0.00 0.00 73 1012.5
20260508174505 73 120 0.0 3.0 0.00 0.00 0.00 75 1012.7
20260508173005 73 338 0.0 5.0 0.00 0.00 0.00 76 1012.8
20260508171511 71 13 0.0 4.0 0.00 0.00 0.00 79 1012.9
20260508170006 69 155 0.0 3.0 0.00 0.00 0.00 82 1013.0
20260508164505 68 81 0.0 2.0 0.00 0.00 0.00 81 1013.4
20260508163012 68 347 0.0 2.0 0.00 0.00 0.00 82 1013.6
20260508161504 67 299 0.0 2.0 0.00 0.00 0.00 80 1013.7
20260508160010 68 291 0.0 2.0 0.00 0.00 0.00 79 1013.9
20260508154508 66 56 0.0 2.0 0.00 0.00 0.00 81 1014.1
20260508153005 67 199 0.0 2.0 0.00 0.00 0.00 82 1014.1
20260508151507 66 337 0.0 2.0 0.00 0.00 0.00 83 1014.3
20260508150018 65 205 0.0 2.0 0.00 0.00 0.00 83 1014.2
20260508144511 65 97 0.0 2.0 0.00 0.00 0.00 83 1014.1
20260508143018 65 21 0.0 2.0 0.00 0.00 0.00 81 1014.2
20260508141512 64 104 0.0 3.0 0.00 0.00 0.00 84 1014.2
20260508140012 63 144 0.0 2.0 0.00 0.00 0.00 84 1014.3
20260508134514 62 150 0.0 2.0 0.00 0.00 0.00 84 1014.4
20260508133015 62 79 0.0 2.0 0.00 0.00 0.00 84 1014.2
20260508131512 62 78 0.0 0.0 0.00 0.00 0.00 85 1014.7
20260508130011 61 78 0.0 0.0 0.00 0.00 0.00 84 1014.5
20260508124514 61 78 0.0 2.0 0.00 0.00 0.00 83 1014.4
20260508123016 61 111 0.0 0.0 0.00 0.00 0.00 84 1014.6
20260508121516 61 111 0.0 0.0 0.00 0.00 0.00 84 1014.7
20260508120017 61 111 0.0 0.0 0.00 0.00 0.00 84 1014.7